Location: Bishopstone
(51.0167°N, 1.9000°W)
Time: 03:09:19
(UTC+00:00)

FREGAT/IRIS - Pass Details

Date: 16 September 2019
Orbit: 347 x 350 km, 97.0° (Epoch: 15 October)

Event Time Altitude Azimuth Distance (km) Brightness Sun altitude
Exits shadow 19:25:17 - 171° (S) 2,146 6.1 -10.8°
Reaches altitude 10° 19:27:10 10° 175° (S) 1,323 5.0 -11.1°
Maximum altitude 19:29:58 66° 258° (WSW) 392 2.8 -11.5°
Drops below altitude 10° 19:32:48 10° 342° (NNW) 1,340 5.8 -12.0°
Sets 19:34:45 0° 345° (NNW) 2,191 6.9 -12.2°
